ARG1654 SACO-SABE

Flight info

Callsign ARG1654
Flight time N/A
Altitude 35000
Route UTRAX1C UTRAX UW24 SNT SNT9R
Aircraft E190/M-SDE3GILORVW/S

Departure

Time 2026-05-08 20:02
Airport Ingeniero Aeronáutico Ambrosio L.V. Taravella International Airport (SACO)

Arrival

Time N/A
Airport Aeroparque Jorge Newbery (SABE)
Time Latitude Longitude Altitude Speed Heading
2026-05-08 19:34 -31.31615 -64.21164 1612 ft 0 kts 269°
2026-05-08 19:54 -31.31616 -64.21156 1612 ft 2 kts 277°
2026-05-08 19:54 -31.31616 -64.21138 1612 ft 2 kts 269°
2026-05-08 19:55 -31.31616 -64.21121 1612 ft 2 kts 270°
2026-05-08 19:55 -31.31617 -64.21107 1612 ft 0 kts 280°
2026-05-08 19:55 -31.31616 -64.21101 1612 ft 1 kts 227°
2026-05-08 19:55 -31.31607 -64.21098 1612 ft 2 kts 174°
2026-05-08 19:56 -31.31598 -64.21099 1612 ft 0 kts 178°
2026-05-08 19:56 -31.31597 -64.21099 1612 ft 0 kts 178°
2026-05-08 19:58 -31.31607 -64.21098 1612 ft 2 kts 178°
2026-05-08 19:58 -31.31628 -64.21098 1612 ft 5 kts 179°
2026-05-08 19:58 -31.31671 -64.21098 1612 ft 5 kts 179°
2026-05-08 19:58 -31.31710 -64.21097 1612 ft 5 kts 177°
2026-05-08 19:59 -31.31771 -64.21057 1612 ft 15 kts 134°
2026-05-08 19:59 -31.31903 -64.21027 1612 ft 23 kts 181°
2026-05-08 19:59 -31.32106 -64.21020 1612 ft 34 kts 174°
2026-05-08 19:59 -31.32347 -64.20978 1612 ft 23 kts 186°
2026-05-08 20:00 -31.32410 -64.20983 1612 ft 3 kts 155°
2026-05-08 20:00 -31.32431 -64.20945 1612 ft 8 kts 114°
2026-05-08 20:00 -31.32435 -64.20882 1612 ft 7 kts 76°
2026-05-08 20:00 -31.32411 -64.20828 1612 ft 7 kts 48°
2026-05-08 20:01 -31.32366 -64.20812 1612 ft 6 kts 359°
2026-05-08 20:01 -31.32241 -64.20812 1612 ft 52 kts
2026-05-08 20:01 -31.31548 -64.20823 1612 ft 142 kts 358°
2026-05-08 20:01 -31.30360 -64.20862 1874 ft 189 kts
2026-05-08 20:02 -31.29030 -64.20873 2877 ft 198 kts
2026-05-08 20:02 -31.27636 -64.20804 3717 ft 215 kts
2026-05-08 20:02 -31.26061 -64.20651 4339 ft 235 kts 11°
2026-05-08 20:02 -31.24773 -64.19745 5615 ft 213 kts 54°
2026-05-08 20:03 -31.24316 -64.18187 5942 ft 214 kts 89°
2026-05-08 20:03 -31.24888 -64.16633 5902 ft 211 kts 137°
2026-05-08 20:03 -31.26191 -64.15900 6012 ft 209 kts 161°
2026-05-08 20:03 -31.27515 -64.15234 6082 ft 212 kts 146°
2026-05-08 20:04 -31.28817 -64.14176 6265 ft 234 kts 139°
2026-05-08 20:04 -31.30010 -64.12966 6305 ft 220 kts 134°
2026-05-08 20:04 -31.31139 -64.11671 6469 ft 243 kts 131°
2026-05-08 20:04 -31.32359 -64.10184 6870 ft 266 kts 130°
2026-05-08 20:05 -31.33659 -64.08547 7219 ft 280 kts 130°
2026-05-08 20:05 -31.34979 -64.06857 7538 ft 283 kts 130°
2026-05-08 20:05 -31.36302 -64.05147 7838 ft 286 kts 130°
2026-05-08 20:05 -31.37633 -64.03423 8139 ft 286 kts 130°
2026-05-08 20:06 -31.38957 -64.01703 8438 ft 287 kts 130°
2026-05-08 20:06 -31.40296 -63.99961 8742 ft 288 kts 130°
2026-05-08 20:06 -31.41648 -63.98201 9046 ft 291 kts 130°
2026-05-08 20:06 -31.42996 -63.96446 9348 ft 293 kts 130°
2026-05-08 20:07 -31.44364 -63.94664 9653 ft 295 kts 130°
2026-05-08 20:07 -31.45730 -63.92883 9955 ft 297 kts 131°
2026-05-08 20:07 -31.47109 -63.91084 10259 ft 299 kts 131°
2026-05-08 20:07 -31.48498 -63.89273 10563 ft 300 kts 131°
2026-05-08 20:08 -31.49891 -63.87455 10866 ft 302 kts 131°
2026-05-08 20:08 -31.51293 -63.85623 11170 ft 304 kts 131°
2026-05-08 20:08 -31.52717 -63.83762 11478 ft 306 kts 131°
2026-05-08 20:08 -31.54136 -63.81908 11783 ft 307 kts 131°
2026-05-08 20:09 -31.55561 -63.80043 12087 ft 309 kts 132°
2026-05-08 20:09 -31.56992 -63.78171 12392 ft 311 kts 132°
2026-05-08 20:09 -31.58427 -63.76292 12696 ft 313 kts 132°
2026-05-08 20:09 -31.59882 -63.74387 13003 ft 314 kts 132°
2026-05-08 20:10 -31.61349 -63.72464 13310 ft 316 kts 132°
2026-05-08 20:10 -31.62821 -63.70535 13618 ft 318 kts 132°
2026-05-08 20:10 -31.64292 -63.68604 13943 ft 319 kts 132°
2026-05-08 20:10 -31.65757 -63.66681 14641 ft 320 kts 132°
2026-05-08 20:11 -31.67259 -63.64708 15323 ft 323 kts 132°
2026-05-08 20:11 -31.68740 -63.62763 15996 ft 325 kts 132°
2026-05-08 20:11 -31.70247 -63.60782 16674 ft 327 kts 132°
2026-05-08 20:11 -31.71755 -63.58798 17334 ft 328 kts 133°
2026-05-08 20:12 -31.73261 -63.56815 17991 ft 329 kts 133°
2026-05-08 20:12 -31.74792 -63.54800 18654 ft 329 kts 133°
2026-05-08 20:12 -31.76292 -63.52823 19304 ft 329 kts 133°
2026-05-08 20:12 -31.77818 -63.50812 19964 ft 329 kts 133°
2026-05-08 20:13 -31.79322 -63.48828 20615 ft 327 kts 133°
2026-05-08 20:13 -31.80822 -63.46849 21266 ft 325 kts 133°
2026-05-08 20:13 -31.82327 -63.44861 21924 ft 322 kts 134°
2026-05-08 20:13 -31.83778 -63.42945 22563 ft 317 kts 134°
2026-05-08 20:14 -31.85225 -63.41032 23208 ft 312 kts 134°
2026-05-08 20:14 -31.86647 -63.39151 23851 ft 304 kts 134°
2026-05-08 20:14 -31.88031 -63.37320 24487 ft 296 kts 134°
2026-05-08 20:14 -31.89269 -63.35461 25114 ft 285 kts 130°
2026-05-08 20:15 -31.90429 -63.33660 25618 ft 267 kts 129°
2026-05-08 20:15 -31.91546 -63.31902 25041 ft 281 kts 129°
2026-05-08 20:15 -31.92784 -63.29974 24022 ft 307 kts 129°
2026-05-08 20:15 -31.94043 -63.28053 24027 ft 287 kts 130°
2026-05-08 20:16 -31.95224 -63.26297 24160 ft 266 kts 131°
2026-05-08 20:16 -31.96427 -63.24585 23464 ft 284 kts 133°
2026-05-08 20:16 -31.97772 -63.22791 22838 ft 293 kts 135°
2026-05-08 20:16 -31.99114 -63.21117 22897 ft 272 kts 137°
2026-05-08 20:17 -32.00433 -63.19584 22713 ft 266 kts 140°
2026-05-08 20:17 -32.01824 -63.18107 22059 ft 280 kts 143°
2026-05-08 20:17 -32.03336 -63.16658 21725 ft 277 kts 146°
2026-05-08 20:17 -32.04832 -63.15366 21697 ft 261 kts 149°
2026-05-08 20:18 -32.06359 -63.14192 21319 ft 264 kts 153°
2026-05-08 20:18 -32.07964 -63.13085 20870 ft 268 kts 151°
2026-05-08 20:18 -32.09351 -63.11627 20899 ft 279 kts 126°
2026-05-08 20:18 -32.10717 -63.06364 21189 ft 287 kts 93°
2026-05-08 20:19 -32.13098 -62.92205 21745 ft 308 kts 112°
2026-05-08 20:19 -32.21117 -62.80001 22477 ft 325 kts 146°
2026-05-08 20:19 -32.25152 -62.77213 22774 ft 337 kts 152°